COSMOS 1690

Satellite information

Favourite Embed

Satellite Type and Status

PAYLOADIN ORBIT

Key statistics

Satellite COSMOS 1690 at a glance.

Uptime

14631

Days in orbit

Revolutions

≈ 12.7

Per day

Orbit

LEO

Low Earth Orbit

Inclination

82.6

Latest

Satellite identification and parameters

Extended collection of information and parameters for COSMOS 1690.

Object identification

Identified? True

Debris? False

Object name: COSMOS 1690

International designator: 1985-094A

Object number (NORAD): 16138

Object ID (CCSDS): 16138

Country: COMMONWEALTH OF INDEPENDENT STATES (CIS)

Current information (Y/N): Y

RCS size: LARGE

Orbital parameters

Period: 113.735 minutes

Inclination: 82.6121 deg

SMA: 7776.013 km

Apoapsis: 1415.741 km

Periapsis: 1380.014 km

RAAN: 9.2932 deg

Eccentricy: 0.00229725

Argument of periapsis: 103.2392 deg

Mean anomaly: 51.0099 deg

Mean motion: 12.66098019 rev/day

Mean motion (dot): 0.00000038 rev/day2

B* drag term: 0.00014209664 1/REarth

Two-line elements (TLE)

Creation date: Oct. 28, 2025, 7:11 p.m.

Reference frame: TEME

Reference center: EARTH

Epoch: Oct. 28, 2025, 2:51 p.m. UTC

TLE line 0: 0 COSMOS 1690

TLE line 1: 1 16138U 85094A 25301.61935206 .00000038 00000-0 14210-3 0 9990

TLE line 2: 2 16138 82.6121 9.2932 0022973 103.2392 51.0099 12.66098019850682

Live tracking on map

Real-time ground track for satellite COSMOS 1690.

In-orbit conjunctions

There are no conjunctions computed for COSMOS 1690, at the moment. Check back to stay up to date, as we update our databases every day.

Go to all conjunctions

Associated space launch

Second generation store-dump military communications satellite

COSMOS 1690 was lifted into orbit during the mission ‘Tsiklon-3 | Strela-3 7 to 12’, on board a Tsiklon-3 space rocket.

The launch took place on Oct. 9, 1985, 9:35 p.m. from 32/1.

For more information about the launch, click the button.

Launch to space Tsiklon-3 | Strela-3 7 to 12
Tsiklon-3 | Strela-3 7 to 12

Agency: N/A

Status: Launch Successful

Launch date: Oct. 9, 1985, 9:35 p.m. UTC

Rocket: Tsiklon-3

Launch pad: 32/1

Location: Plesetsk Cosmodrome, Russian Federation

...

Latest news about this satellite

There are no fresh news available about this satellite. Check back as we update our databases every day.


Newsletter sign-up

Weekly statistics, charts and insights to help you stay on top of the space industry.